Location: Grossmotten
(48.5500°N, 15.3833°E)
Time: 05:40:34
(UTC+00:00)

Cosmos 1833 Rocket - Pass Details

Date: 15 November 2019
Orbit: 832 x 840 km, 71.0° (Epoch: 13 December)

Event Time Altitude Azimuth Distance (km) Brightness Sun altitude
Exits shadow 05:12:22 11° 285° (WNW) 2,368 4.3 -9.0°
Maximum altitude 05:15:40 17° 323° (NW) 1,982 4.2 -8.5°
Drops below altitude 10° 05:19:19 10° 4° (N) 2,456 5.0 -7.9°
Sets 05:22:41 0° 24° (NNE) 3,396 5.9 -7.4°
